Location: Mannheim
(49.4880°N, 8.4650°E)
Time: 19:13:07
(UTC+01:00)

ISS - Pass Details

Date: 26 September 2023
Orbit: 415 x 417 km, 51.6° (Epoch: 09 December)

Event Time Altitude Azimuth Distance (km) Brightness Sun altitude
Rises 21:27:44 0° 289° (WNW) 2,359 1.6 -21.6°
Reaches altitude 10° 21:29:51 10° 285° (WNW) 1,493 0.1 -21.9°
Enters shadow 21:32:31 46° 252° (WSW) 566 -2.9 -22.3°
